Weather History for Shelbyville, IN

Change the Weather History Date:

Saturday, April 6, 2013

  Actual Average Record
Temperature  
Mean Temperature 54 °F 50 °F  
Max Temperature 70 °F 60 °F 73 °F (2001)
Min Temperature 37 °F 39 °F 26 °F (2002)
Degree Days  
Heating Degree Days 11 16  
Month to date heating degree days 130 99  
Since 1 July heating degree days 4779 4982  
Cooling Degree Days 0 0  
Month to date cooling degree days 0 0  
Year to date cooling degree days 0 1  
Growing Degree Days 4 (Base 50)    
Moisture  
Dew Point 30 °F    
Average Humidity 44    
Maximum Humidity 59    
Minimum Humidity 28    
Precipitation  
Precipitation 0.00 in 0.11 in 0.24 in (2006)
Month to date precipitation T 0.69  
Year to date precipitation 6.46 8.87  
Sea Level Pressure  
Sea Level Pressure 30.01 in    
Wind  
Wind Speed 15 mph (SE)    
Max Wind Speed 24 mph    
Max Gust Speed 30 mph    
Visibility 10 miles    
Events      
T = Trace of Precipitation, MM = Missing Value Source: NWS Daily Summary

Daily Weather History Graph

Daily Weather History Graph

Search for Another Location

Airport:

Trip Planner

Search our weather history database for the weather conditions in past years. The results will help you decide how hot, cold, wet, or windy it might be!

Date:

Astronomy

Apr. 06, 2013 Rise Set
Actual Time 7:19 AM EDT 8:12 PM EDT
Civil Twilight 6:51 AM EDT 8:39 PM EDT
Nautical Twilight 6:19 AM EDT 9:12 PM EDT
Astronomical Twilight 5:45 AM EDT 9:46 PM EDT
Moon 5:01 AM EDT (4/6) 4:41 PM EDT (4/6)
Length of Visible Light 13h 48m
Length of Day
12h 53m
Waning Crescent, 15% of the Moon is Illuminated
Apr 6
Waning Crescent
Apr 10
New
Apr 18
First Quarter
Apr 25
Full
May 2
Last Quarter

Hourly Weather History & Observations

Time (EDT) Temp. Windchill Dew Point Humidity Pressure Visibility Wind Dir Wind Speed Gust Speed Precip Events Conditions
12:53 AM 41.0 °F 35.8 °F 25.0 °F 53% 30.12 in 10.0 mi ENE 8.1 mph - N/A   Clear
1:53 AM 39.0 °F 34.8 °F 24.1 °F 55% 30.12 in 10.0 mi ENE 5.8 mph - N/A   Clear
2:53 AM 39.0 °F 36.8 °F 24.1 °F 55% 30.11 in 10.0 mi East 3.5 mph - N/A   Clear
3:53 AM 39.9 °F 34.5 °F 26.1 °F 58% 30.10 in 10.0 mi ESE 8.1 mph - N/A   Clear
4:53 AM 43.0 °F 37.2 °F 25.0 °F 49% 30.09 in 10.0 mi ESE 10.4 mph - N/A   Partly Cloudy
5:53 AM 42.1 °F 38.4 °F 27.0 °F 55% 30.12 in 10.0 mi ESE 5.8 mph - N/A   Mostly Cloudy
6:53 AM 42.1 °F 36.1 °F 27.0 °F 55% 30.13 in 10.0 mi ESE 10.4 mph - N/A   Overcast
7:53 AM 43.0 °F 36.8 °F 26.1 °F 51% 30.14 in 10.0 mi ESE 11.5 mph - N/A   Scattered Clouds
8:53 AM 45.0 °F 37.9 °F 27.0 °F 49% 30.15 in 10.0 mi SE 16.1 mph - N/A   Mostly Cloudy
9:53 AM 48.0 °F - 26.1 °F 42% 30.12 in 10.0 mi SE 17.3 mph - N/A   Mostly Cloudy
10:53 AM 53.1 °F - 27.0 °F 37% 30.11 in 10.0 mi SSE 16.1 mph - N/A   Scattered Clouds
11:53 AM 57.0 °F - 28.9 °F 34% 30.11 in 10.0 mi SSE 15.0 mph - N/A   Clear
12:53 PM 59.0 °F - 30.0 °F 33% 30.08 in 10.0 mi SSE 16.1 mph 21.9 mph N/A   Clear
1:53 PM 63.0 °F - 30.9 °F 30% 30.04 in 10.0 mi SSE 19.6 mph 26.5 mph N/A   Clear
2:53 PM 66.0 °F - 33.1 °F 29% 29.99 in 10.0 mi South 18.4 mph 25.3 mph N/A   Clear
3:53 PM 66.9 °F - 34.0 °F 30% 29.94 in 10.0 mi South 21.9 mph 26.5 mph N/A   Clear
4:53 PM 68.0 °F - 35.1 °F 30% 29.90 in 10.0 mi South 18.4 mph 26.5 mph N/A   Clear
5:53 PM 69.1 °F - 35.1 °F 29% 29.86 in 10.0 mi South 21.9 mph 28.8 mph N/A   Clear
6:53 PM 69.1 °F - 36.0 °F 30% 29.84 in 10.0 mi South 19.6 mph - N/A   Clear
7:53 PM 66.9 °F - 36.0 °F 32% 29.84 in 10.0 mi South 18.4 mph - N/A   Clear
8:53 PM 64.0 °F - 36.0 °F 35% 29.85 in 10.0 mi South 12.7 mph - N/A   Clear
9:53 PM 64.9 °F - 35.1 °F 33% 29.83 in 10.0 mi South 18.4 mph - N/A   Clear
10:53 PM 64.0 °F - 35.1 °F 34% 29.83 in 10.0 mi South 19.6 mph - N/A   Clear
11:53 PM 62.1 °F - 36.0 °F 38% 29.83 in 10.0 mi South 16.1 mph - N/A   Clear